| time (UTC) | temp F | wind direction | speed knots | gust knots | rain 1hr in | rain 24hr in | rain mn in | humidity % | barometer mb |
| 20260504175317 | 59 | 173 | 6.1 | 12.2 | 0.00 | 0.00 | 0.00 | 80 | 1013.7 |
| 20260504174815 | 59 | 195 | 7.8 | 11.3 | 0.00 | 0.00 | 0.00 | 82 | 1013.8 |
| 20260504174312 | 59 | 196 | 10.4 | 12.2 | 0.00 | 0.00 | 0.00 | 80 | 1013.9 |
| 20260504173809 | 59 | 201 | 7.0 | 13.9 | 0.00 | 0.00 | 0.00 | 81 | 1014.1 |
| 20260504173305 | 59 | 197 | 5.2 | 12.2 | 0.00 | 0.00 | 0.00 | 83 | 1014.0 |
| 20260504172803 | 57 | 165 | 7.8 | 18.2 | 0.00 | 0.00 | 0.00 | 83 | 1014.0 |
| 20260504172259 | 58 | 125 | 6.1 | 12.2 | 0.00 | 0.00 | 0.00 | 82 | 1014.1 |
| 20260504171755 | 59 | 165 | 4.3 | 10.4 | 0.00 | 0.00 | 0.00 | 82 | 1014.2 |
| 20260504171252 | 58 | 166 | 3.5 | 13.0 | 0.00 | 0.00 | 0.00 | 83 | 1014.3 |
| 20260504170749 | 58 | 168 | 5.2 | 14.8 | 0.00 | 0.00 | 0.00 | 82 | 1014.4 |
| 20260504170246 | 58 | 163 | 6.1 | 13.9 | 0.00 | 0.00 | 0.00 | 83 | 1014.4 |
| 20260504160205 | 58 | 219 | 8.7 | 12.2 | 0.00 | 0.00 | 0.00 | 83 | 1014.9 |
| 20260504151133 | 57 | 205 | 8.7 | 11.3 | 0.00 | 0.00 | 0.00 | 83 | 1015.2 |
| 20260504150630 | 57 | 193 | 3.5 | 12.2 | 0.00 | 0.00 | 0.00 | 84 | 1015.3 |
| 20260504150127 | 57 | 214 | 8.7 | 14.8 | 0.00 | 0.00 | 0.00 | 83 | 1015.4 |
| 20260504141055 | 57 | 208 | 6.1 | 12.2 | 0.00 | 0.00 | 0.00 | 83 | 1015.5 |
| 20260504140552 | 57 | 205 | 5.2 | 13.0 | 0.00 | 0.00 | 0.00 | 84 | 1015.4 |
| 20260504130516 | 55 | 172 | 11.3 | 11.3 | 0.00 | 0.00 | 0.00 | 87 | 1015.8 |
| 20260504110404 | 54 | 194 | 9.6 | 12.2 | 0.00 | 0.00 | 0.00 | 77 | 1016.5 |
| 20260504100321 | 52 | 204 | 6.1 | 9.6 | 0.00 | 0.00 | 0.00 | 80 | 1016.4 |
| 20260504081714 | 53 | 229 | 6.1 | 14.8 | 0.00 | 0.00 | 0.00 | 67 | 1016.2 |
| 20260504081211 | 53 | 222 | 4.3 | 13.0 | 0.00 | 0.00 | 0.00 | 66 | 1016.3 |
| 20260504080707 | 53 | 242 | 5.2 | 13.0 | 0.00 | 0.00 | 0.00 | 65 | 1016.2 |
| 20260504080204 | 53 | 250 | 4.3 | 11.3 | 0.00 | 0.00 | 0.00 | 63 | 1016.0 |
| 20260504070131 | 53 | 210 | 3.5 | 10.4 | 0.00 | 0.00 | 0.00 | 62 | 1016.0 |
| 20260504050520 | 54 | 236 | 3.5 | 9.6 | 0.00 | 0.00 | 0.00 | 54 | 1015.7 |
| 20260504050017 | 54 | 247 | 4.3 | 7.8 | 0.00 | 0.00 | 0.00 | 54 | 1015.6 |
| 20260504045514 | 54 | 330 | 1.7 | 13.0 | 0.00 | 0.00 | 0.00 | 54 | 1015.5 |
| 20260504045009 | 54 | 219 | 6.1 | 10.4 | 0.00 | 0.00 | 0.00 | 53 | 1015.4 |
| 20260504044507 | 54 | 209 | 5.2 | 7.8 | 0.00 | 0.00 | 0.00 | 53 | 1015.4 |
| 20260504044004 | 54 | 210 | 3.5 | 9.6 | 0.00 | 0.00 | 0.00 | 53 | 1015.5 |
| 20260504043500 | 54 | 254 | 3.5 | 14.8 | 0.00 | 0.00 | 0.00 | 53 | 1015.6 |
| 20260504042958 | 54 | 296 | 9.6 | 10.4 | 0.00 | 0.00 | 0.00 | 53 | 1015.5 |
| 20260504042454 | 54 | 247 | 5.2 | 9.6 | 0.00 | 0.00 | 0.00 | 55 | 1015.7 |
| 20260504041951 | 54 | 59 | 3.5 | 8.7 | 0.00 | 0.00 | 0.00 | 55 | 1015.4 |
| 20260504041448 | 54 | 225 | 3.5 | 7.8 | 0.00 | 0.00 | 0.00 | 56 | 1015.5 |
| 20260504040943 | 54 | 263 | 3.5 | 10.4 | 0.00 | 0.00 | 0.00 | 56 | 1015.4 |
| 20260504040441 | 54 | 237 | 4.3 | 11.3 | 0.00 | 0.00 | 0.00 | 56 | 1015.5 |
| 20260504035937 | 54 | 220 | 5.2 | 13.0 | 0.00 | 0.00 | 0.00 | 56 | 1015.4 |
| 20260504035435 | 54 | 242 | 3.5 | 8.7 | 0.00 | 0.00 | 0.00 | 57 | 1015.4 |
| 20260504034931 | 54 | 242 | 1.7 | 7.8 | 0.00 | 0.00 | 0.00 | 57 | 1015.1 |
| 20260504034429 | 54 | 260 | 4.3 | 7.0 | 0.00 | 0.00 | 0.00 | 58 | 1015.3 |
| 20260504033926 | 54 | 222 | 1.7 | 9.6 | 0.00 | 0.00 | 0.00 | 59 | 1015.2 |
| 20260504033423 | 54 | 218 | 3.5 | 6.1 | 0.00 | 0.00 | 0.00 | 60 | 1015.3 |
| 20260504032920 | 54 | 223 | 3.5 | 9.6 | 0.00 | 0.00 | 0.00 | 58 | 1015.2 |
| 20260504032417 | 54 | 198 | 3.5 | 9.6 | 0.00 | 0.00 | 0.00 | 57 | 1015.1 |
| 20260504031914 | 54 | 252 | 2.6 | 9.6 | 0.00 | 0.00 | 0.00 | 55 | 1015.2 |
| 20260504031411 | 54 | 201 | 4.3 | 8.7 | 0.00 | 0.00 | 0.00 | 55 | 1015.4 |
| 20260504030908 | 54 | 213 | 3.5 | 6.1 | 0.00 | 0.00 | 0.00 | 55 | 1015.1 |
| 20260504030405 | 54 | 256 | 3.5 | 9.6 | 0.00 | 0.00 | 0.00 | 55 | 1015.2 |
| 20260504025901 | 54 | 185 | 2.6 | 7.8 | 0.00 | 0.00 | 0.00 | 53 | 1015.2 |
| 20260504025358 | 55 | 238 | 2.6 | 7.8 | 0.00 | 0.00 | 0.00 | 52 | 1015.1 |
| 20260504024854 | 55 | 212 | 3.5 | 7.8 | 0.00 | 0.00 | 0.00 | 50 | 1015.1 |
| 20260504024351 | 55 | 223 | 4.3 | 7.8 | 0.00 | 0.00 | 0.00 | 49 | 1015.1 |
| 20260504023848 | 55 | 179 | 0.0 | 7.0 | 0.00 | 0.00 | 0.00 | 47 | 1015.3 |
| 20260504023345 | 55 | 196 | 1.7 | 5.2 | 0.00 | 0.00 | 0.00 | 48 | 1015.0 |
| 20260504022840 | 55 | 215 | 4.3 | 7.0 | 0.00 | 0.00 | 0.00 | 50 | 1015.4 |
| 20260504022337 | 55 | 284 | 1.7 | 5.2 | 0.00 | 0.00 | 0.00 | 51 | 1015.1 |
| 20260504021834 | 55 | 267 | 1.7 | 7.8 | 0.00 | 0.00 | 0.00 | 50 | 1014.9 |
| 20260504021331 | 55 | 225 | 7.0 | 9.6 | 0.00 | 0.00 | 0.00 | 49 | 1015.2 |
| 20260504020828 | 54 | 232 | 2.6 | 6.1 | 0.00 | 0.00 | 0.00 | 49 | 1015.1 |
| 20260504020325 | 55 | 16 | 1.7 | 7.0 | 0.00 | 0.00 | 0.00 | 49 | 1015.1 |
| 20260504015821 | 55 | 222 | 3.5 | 7.0 | 0.00 | 0.00 | 0.00 | 47 | 1015.0 |
| 20260504015317 | 55 | 224 | 2.6 | 5.2 | 0.00 | 0.00 | 0.00 | 46 | 1015.1 |
| 20260504014814 | 55 | 8 | 1.7 | 7.0 | 0.00 | 0.00 | 0.00 | 46 | 1015.0 |
| 20260504014309 | 55 | 236 | 2.6 | 5.2 | 0.00 | 0.00 | 0.00 | 47 | 1015.0 |
| 20260504013808 | 55 | 296 | 2.6 | 6.1 | 0.00 | 0.00 | 0.00 | 47 | 1015.0 |
| 20260504013305 | 55 | 213 | 2.6 | 5.2 | 0.00 | 0.00 | 0.00 | 47 | 1015.1 |
| 20260504012801 | 55 | 222 | 1.7 | 6.1 | 0.00 | 0.00 | 0.00 | 47 | 1014.9 |
| 20260504012259 | 55 | 236 | 2.6 | 5.2 | 0.00 | 0.00 | 0.00 | 47 | 1014.8 |
| 20260504011756 | 55 | 183 | 3.5 | 7.0 | 0.00 | 0.00 | 0.00 | 46 | 1014.8 |
| 20260504011253 | 55 | 227 | 2.6 | 7.0 | 0.00 | 0.00 | 0.00 | 46 | 1014.8 |
| 20260504010749 | 55 | 211 | 2.6 | 5.2 | 0.00 | 0.00 | 0.00 | 45 | 1014.6 |
| 20260504010244 | 55 | 252 | 0.9 | 7.0 | 0.00 | 0.00 | 0.00 | 44 | 1014.4 |
| 20260504005741 | 55 | 245 | 2.6 | 5.2 | 0.00 | 0.00 | 0.00 | 44 | 1014.4 |
| 20260504005238 | 56 | 209 | 1.7 | 5.2 | 0.00 | 0.00 | 0.00 | 44 | 1014.1 |
| 20260504004736 | 56 | 212 | 2.6 | 7.8 | 0.00 | 0.00 | 0.00 | 43 | 1014.1 |
| 20260504004233 | 55 | 286 | 0.0 | 6.1 | 0.00 | 0.00 | 0.00 | 44 | 1014.1 |
| 20260504003729 | 55 | 208 | 2.6 | 6.1 | 0.00 | 0.00 | 0.00 | 44 | 1014.0 |
| 20260504003227 | 55 | 174 | 2.6 | 4.3 | 0.00 | 0.00 | 0.00 | 45 | 1014.0 |
| 20260504002723 | 55 | 280 | 1.7 | 5.2 | 0.00 | 0.00 | 0.00 | 47 | 1013.8 |
| 20260504002220 | 55 | 336 | 2.6 | 6.1 | 0.00 | 0.00 | 0.00 | 47 | 1014.0 |
| 20260504001718 | 55 | 170 | 2.6 | 6.1 | 0.00 | 0.00 | 0.00 | 48 | 1014.0 |
| 20260504001215 | 55 | 169 | 0.0 | 6.1 | 0.00 | 0.00 | 0.00 | 48 | 1013.8 |
| 20260504000711 | 55 | 234 | 1.7 | 5.2 | 0.00 | 0.00 | 0.00 | 51 | 1013.9 |
| 20260504000208 | 55 | 156 | 0.9 | 6.1 | 0.00 | 0.00 | 0.00 | 50 | 1013.9 |
| 20260503235707 | 56 | 356 | 1.7 | 6.1 | 0.00 | 0.00 | 0.00 | 51 | 1013.8 |
| 20260503235203 | 56 | 268 | 1.7 | 4.3 | 0.00 | 0.00 | 0.00 | 51 | 1013.7 |
| 20260503234701 | 56 | 290 | 3.5 | 7.0 | 0.00 | 0.00 | 0.00 | 47 | 1013.6 |
| 20260503234159 | 57 | 299 | 1.7 | 8.7 | 0.00 | 0.00 | 0.00 | 45 | 1013.5 |
| 20260503233655 | 57 | 326 | 2.6 | 7.0 | 0.00 | 0.00 | 0.00 | 45 | 1013.6 |
| 20260503233151 | 57 | 325 | 6.1 | 7.0 | 0.00 | 0.00 | 0.00 | 46 | 1013.5 |
| 20260503232648 | 57 | 329 | 3.5 | 9.6 | 0.00 | 0.00 | 0.00 | 45 | 1013.4 |
| 20260503232146 | 58 | 312 | 2.6 | 10.4 | 0.00 | 0.00 | 0.00 | 41 | 1013.5 |
| 20260503231644 | 58 | 330 | 4.3 | 7.8 | 0.00 | 0.00 | 0.00 | 44 | 1013.5 |
| 20260503231140 | 58 | 299 | 4.3 | 8.7 | 0.00 | 0.00 | 0.00 | 42 | 1013.4 |
| 20260503230637 | 58 | 338 | 1.7 | 10.4 | 0.00 | 0.00 | 0.00 | 43 | 1013.5 |
| 20260503230134 | 58 | 268 | 0.0 | 7.8 | 0.00 | 0.00 | 0.00 | 42 | 1013.3 |
| 20260503225631 | 58 | 343 | 1.7 | 9.6 | 0.00 | 0.00 | 0.00 | 45 | 1013.2 |
| 20260503225131 | 59 | 300 | 2.6 | 8.7 | 0.00 | 0.00 | 0.00 | 42 | 1013.3 |
| 20260503224629 | 58 | 345 | 1.7 | 7.8 | 0.00 | 0.00 | 0.00 | 40 | 1013.2 |
| 20260503224126 | 59 | 288 | 4.3 | 18.2 | 0.00 | 0.00 | 0.00 | 40 | 1013.3 |
| 20260503223624 | 59 | 343 | 2.6 | 11.3 | 0.00 | 0.00 | 0.00 | 41 | 1013.2 |
| 20260503223120 | 59 | 315 | 4.3 | 13.0 | 0.00 | 0.00 | 0.00 | 40 | 1013.2 |
| 20260503222618 | 59 | 308 | 8.7 | 11.3 | 0.00 | 0.00 | 0.00 | 40 | 1013.2 |
| 20260503222115 | 59 | 308 | 7.0 | 13.9 | 0.00 | 0.00 | 0.00 | 39 | 1013.3 |
| 20260503221614 | 59 | 311 | 2.6 | 10.4 | 0.00 | 0.00 | 0.00 | 39 | 1013.2 |
| 20260503221111 | 59 | 233 | 3.5 | 10.4 | 0.00 | 0.00 | 0.00 | 40 | 1013.1 |
| 20260503220607 | 59 | 65 | 1.7 | 8.7 | 0.00 | 0.00 | 0.00 | 41 | 1013.1 |
| 20260503220104 | 59 | 325 | 4.3 | 9.6 | 0.00 | 0.00 | 0.00 | 40 | 1013.0 |
| 20260503215601 | 59 | 320 | 5.2 | 15.6 | 0.00 | 0.00 | 0.00 | 40 | 1013.1 |
| 20260503215057 | 59 | 338 | 2.6 | 9.6 | 0.00 | 0.00 | 0.00 | 39 | 1012.9 |
| 20260503214556 | 59 | 294 | 4.3 | 13.9 | 0.00 | 0.00 | 0.00 | 39 | 1012.9 |
| 20260503214052 | 59 | 310 | 6.1 | 20.0 | 0.00 | 0.00 | 0.00 | 39 | 1012.5 |
| 20260503213551 | 59 | 310 | 2.6 | 9.6 | 0.00 | 0.00 | 0.00 | 38 | 1012.8 |
| 20260503213047 | 59 | 319 | 4.3 | 15.6 | 0.00 | 0.00 | 0.00 | 39 | 1012.7 |
| 20260503212544 | 59 | 289 | 6.1 | 13.9 | 0.00 | 0.00 | 0.00 | 37 | 1012.5 |
| 20260503212042 | 59 | 316 | 4.3 | 19.1 | 0.00 | 0.00 | 0.00 | 36 | 1012.7 |
| 20260503211539 | 59 | 311 | 7.8 | 14.8 | 0.00 | 0.00 | 0.00 | 36 | 1012.8 |
| 20260503211034 | 60 | 334 | 4.3 | 10.4 | 0.00 | 0.00 | 0.00 | 37 | 1012.6 |
| 20260503210531 | 59 | 298 | 3.5 | 20.9 | 0.00 | 0.00 | 0.00 | 37 | 1012.6 |
| 20260503210027 | 60 | 296 | 7.8 | 13.9 | 0.00 | 0.00 | 0.00 | 36 | 1012.7 |
| 20260503205524 | 60 | 303 | 7.0 | 19.1 | 0.00 | 0.00 | 0.00 | 37 | 1012.7 |
| 20260503205020 | 60 | 316 | 4.3 | 9.6 | 0.00 | 0.00 | 0.00 | 37 | 1012.5 |
| 20260503204517 | 59 | 318 | 4.3 | 15.6 | 0.00 | 0.00 | 0.00 | 38 | 1012.7 |
| 20260503204014 | 60 | 294 | 7.8 | 16.5 | 0.00 | 0.00 | 0.00 | 37 | 1012.7 |
| 20260503203512 | 61 | 298 | 4.3 | 8.7 | 0.00 | 0.00 | 0.00 | 37 | 1012.8 |
| 20260503203009 | 60 | 324 | 4.3 | 11.3 | 0.00 | 0.00 | 0.00 | 35 | 1012.8 |
| 20260503202506 | 59 | 301 | 3.5 | 11.3 | 0.00 | 0.00 | 0.00 | 37 | 1012.8 |
| 20260503202004 | 60 | 319 | 5.2 | 9.6 | 0.00 | 0.00 | 0.00 | 37 | 1012.7 |
| 20260503201502 | 59 | 326 | 3.5 | 13.0 | 0.00 | 0.00 | 0.00 | 36 | 1012.7 |
| 20260503200959 | 60 | 273 | 6.1 | 13.0 | 0.00 | 0.00 | 0.00 | 36 | 1012.6 |
| 20260503200455 | 60 | 295 | 3.5 | 12.2 | 0.00 | 0.00 | 0.00 | 37 | 1012.6 |
| 20260503195952 | 60 | 310 | 6.1 | 10.4 | 0.00 | 0.00 | 0.00 | 39 | 1012.5 |
| 20260503195449 | 59 | 306 | 7.0 | 8.7 | 0.00 | 0.00 | 0.00 | 38 | 1012.7 |
| 20260503194945 | 59 | 303 | 7.0 | 23.5 | 0.00 | 0.00 | 0.00 | 37 | 1012.9 |
| 20260503194443 | 59 | 317 | 4.3 | 13.0 | 0.00 | 0.00 | 0.00 | 38 | 1012.8 |
| 20260503193938 | 58 | 296 | 3.5 | 12.2 | 0.00 | 0.00 | 0.00 | 39 | 1012.8 |
| 20260503193434 | 59 | 316 | 6.1 | 14.8 | 0.00 | 0.00 | 0.00 | 39 | 1012.8 |
| 20260503192929 | 60 | 309 | 6.1 | 12.2 | 0.00 | 0.00 | 0.00 | 38 | 1012.9 |
| 20260503192426 | 58 | 309 | 3.5 | 20.0 | 0.00 | 0.00 | 0.00 | 38 | 1012.8 |
| 20260503191921 | 59 | 299 | 4.3 | 15.6 | 0.00 | 0.00 | 0.00 | 39 | 1013.1 |
| 20260503191420 | 59 | 196 | 2.6 | 13.0 | 0.00 | 0.00 | 0.00 | 40 | 1012.9 |
| 20260503190916 | 58 | 308 | 4.3 | 18.2 | 0.00 | 0.00 | 0.00 | 38 | 1013.1 |
| 20260503190413 | 58 | 297 | 3.5 | 17.4 | 0.00 | 0.00 | 0.00 | 41 | 1013.1 |
| 20260503185910 | 58 | 315 | 6.1 | 19.1 | 0.00 | 0.00 | 0.00 | 41 | 1013.2 |
| 20260503185406 | 58 | 327 | 7.8 | 19.1 | 0.00 | 0.00 | 0.00 | 38 | 1013.3 |
| 20260503184905 | 58 | 324 | 5.2 | 18.2 | 0.00 | 0.00 | 0.00 | 40 | 1013.3 |
| 20260503184402 | 58 | 292 | 4.3 | 15.6 | 0.00 | 0.00 | 0.00 | 40 | 1013.3 |
| 20260503183858 | 58 | 295 | 4.3 | 19.1 | 0.00 | 0.00 | 0.00 | 41 | 1013.2 |
| 20260503183355 | 57 | 329 | 3.5 | 19.1 | 0.00 | 0.00 | 0.00 | 40 | 1013.3 |
| 20260503182853 | 57 | 318 | 4.3 | 13.0 | 0.00 | 0.00 | 0.00 | 40 | 1013.3 |
| 20260503182351 | 57 | 335 | 3.5 | 18.2 | 0.00 | 0.00 | 0.00 | 39 | 1013.2 |
| 20260503181848 | 56 | 326 | 5.2 | 11.3 | 0.00 | 0.00 | 0.00 | 42 | 1013.3 |
| 20260503181345 | 58 | 299 | 7.8 | 11.3 | 0.00 | 0.00 | 0.00 | 39 | 1013.3 |
| 20260503180842 | 57 | 297 | 2.6 | 13.9 | 0.00 | 0.00 | 0.00 | 42 | 1013.3 |
| 20260503180340 | 57 | 327 | 5.2 | 25.2 | 0.00 | 0.00 | 0.00 | 40 | 1013.5 |
| 20260503175836 | 57 | 300 | 2.6 | 13.0 | 0.00 | 0.00 | 0.00 | 41 | 1013.3 |